Other Public Products
Issued by NWS Grand Forks, ND

Home | Current Version | Previous Version | Graphics & Text | Print | Product List | Glossary On
Versions: 1 2 3 4 5 6 7 8 9 10 11 12 13 14 15 16 17 18 19 20 21 22 23 24 25 26 27 28 29 30 31 32 33 34 35 36 37 38 39 40 41 42 43 44 45 46 47 48 49 50
000
FPUS83 KFGF 182210
OPUFGF
PRAIRIE TO PINES WEATHER ROUNDUP
NATIONAL WEATHER SERVICE EASTERN NORTH DAKOTA/GRAND FORKS ND
500 PM CDT MON SEP 18 2017

 **SATELLITE DATA USED TO AUGMENT SKY COVER AT AUTOMATED STATIONS**
 *****  WEATHER ACROSS EASTERN NORTH DAKOTA  *****

CITY           SKY/WX    TMP DP  RH WIND       PRES   REMARKS
GRAND FORKS    CLOUDY    68  56  65 E8        29.80F
GRAND FORKS AF CLOUDY    70  55  60 E6        29.82F
GRAND CITY NWS NOT AVBL
BUXTON         NOT AVBL
DEVILS LAKE    CLOUDY    64  51  62 SE6       29.82S
FARGO          FAIR      66  56  70 SE17G26   29.82F
WAHPETON ARPT  CLOUDY    64  54  68 SE14      29.84F
$$

 *****  WEATHER ACROSS CENTRAL AND WESTERN NORTH DAKOTA  *****

CITY           SKY/WX    TMP DP  RH WIND       PRES   REMARKS
JAMESTOWN      FAIR      71  49  45 W7        29.79S
BISMARCK       FAIR      73  47  39 CALM      29.79S
MINOT          FAIR      72  47  40 E9        29.76F
MINOT AFB      FAIR      70  47  44 SE9       29.75F
GARRISON         N/A     70  45  40 VRB5      29.78S
WILLISTON      FAIR      74  43  32 SE8       29.70F
DICKINSON      FAIR      74  37  26 S7        29.74F
HETTINGER      FAIR      75  37  25 S12       29.78F
$$

 *****  OTHER OBSERVATIONS NORTHEAST NORTH DAKOTA  *****

CITY           SKY/WX    TMP DP  RH WIND       PRES   REMARKS
WALHALLA       FAIR     N/A N/A N/A E6        29.83S
LANGDON        MOCLDY    64  50  59 SE13      29.83S
CAVALIER       CLOUDY    63  52  67 SE7       29.83S
GRAFTON        MOCLDY    64  55  72 NE6       29.84S
CANDO          MOCLDY    66  52  59 S12       29.83S
FORT TOTTEN      N/A     66  52  61 E2        29.95S
ROLLA          MOCLDY    66  46  48 SE8       29.81F
RUGBY          FAIR      66  52  59 E9        29.78F
 ***** THE ABOVE OBSERVATIONS ARE NON NWS ARE NOT QUALITY
        CONTROLLED AND MAY MIS-REPORT RAIN FOR SNOW...
$$

 *****  OTHER OBSERVATIONS SOUTHEAST NORTH DAKOTA *****

CITY           SKY/WX    TMP DP  RH WIND       PRES   REMARKS
COOPERSTOWN    FAIR      70  55  60 VRB5      29.80F
VALLEY CITY    FAIR      73  54  49 VRB7      29.80F
OAKES          NOT AVBL
GWINNER        MOCLDY    73  61  64 SE8       29.78F
BUFFALO        NOT AVBL
WYNDMERE       NOT AVBL
 ***** THE ABOVE OBSERVATIONS ARE NON NWS ARE NOT QUALITY
       CONTROLLED AND MAY MIS-REPORT RAIN FOR SNOW...
$$

  *****  WEATHER ACROSS NORTHERN MINNESOTA  *****

CITY           SKY/WX    TMP DP  RH WIND       PRES   REMARKS
FLAG ISLAND    FAIR      63  54  72 S12       29.88S
WARROAD        FAIR      59  54  82 SE6       29.89F
ROSEAU         LGT RAIN  59  54  82 SE6       29.88F
HALLOCK        CLOUDY    63  54  72 E8        29.84F
THF RVR FALLS  CLOUDY    64  53  67 E8        29.86F
HALSTAD        NOT AVBL
FOSSTON        CLOUDY    64  52  63 S13       29.87S
BAUDETTE       LGT RAIN  57  53  86 E6        29.90F
WASKISH        PTSUNNY   63  54  72 SE6       29.90S
CROOKSTON      PTSUNNY   68  55  64 S15       29.83S
$$
  *****  WEATHER ACROSS CENTRAL AND WEST MINNESOTA  *****

CITY           SKY/WX    TMP DP  RH WIND       PRES   REMARKS
BEMIDJI        NOT AVBL
PARK RAPIDS    CLOUDY    57  53  86 SE12      29.91F
WADENA         CLOUDY    57  54  88 SE10      29.90F
DETROIT LAKES  CLOUDY    57  54  88 S15       29.90R
MOORHEAD       CLOUDY    63  55  77 SE10      29.85F
FERGUS FALLS   CLOUDY    61  55  82 S13G18    29.87F
ELBOW LAKE     CLOUDY    61  56  86 E16       29.87F
MORRIS MN      PTSUNNY   64  57  77 SE14      29.86F
STAPLES        CLOUDY    57  52  82 SE8       29.92F
WHEATON        PTSUNNY   66  57  72 SE14      29.85F
$$
  *****  WEATHER ELSEWHERE ACROSS MINNESOTA  *****

CITY           SKY/WX    TMP DP  RH WIND       PRES   REMARKS
DULUTH         PTSUNNY   57  51  80 SE12      30.00F
INTRNTL FALLS  FAIR      62  50  64 SE9       29.93F
ELY            PTSUNNY   59  45  58 S9G17     29.99S
CLOQUET        PTSUNNY   57  48  72 S7        29.99F
BRAINERD       CLOUDY    58  51  78 SE7       29.95F
HIBBING        CLOUDY    57  47  69 S8        29.97F
ALEXANDRIA     CLOUDY    59  56  89 SE14      29.91S
SAINT CLOUD    CLOUDY    57  54  89 SE15G21   29.95S
MINNEAPOLIS    CLOUDY    57  55  93 SE13      29.98F
$$

  *****  WEATHER ACROSS SOUTH DAKOTA  *****

CITY           SKY/WX    TMP DP  RH WIND       PRES   REMARKS
SIOUX FALLS    FAIR      74  63  68 S12       29.85F
BROOKINGS      FAIR      70  60  70 SE10      29.86F
WATERTOWN      FAIR      71  61  70 S14       29.83F
HURON          FAIR      80  56  43 S12G20    29.79F
SISSETON         N/A     72  61  68 SE14      29.81S
ABERDEEN       FAIR      79  52  38 S7        29.78F
MITCHELL       FAIR      79  60  52 S12       29.81S
PIERRE         FAIR      78  50  37 S6        29.77F
MOBRIDGE       FAIR      76  43  30 CALM      29.77F
RAPID CITY     SUNNY     79  34  19 S12       29.77F
$$

  *****  SOME WEATHER IN NEARBY STATES *****

CITY           SKY/WX    TMP DP  RH WIND       PRES   REMARKS
GLASGOW MT     FAIR      72  40  31 SE9       29.63F
GREAT FALLS MT FAIR      66  32  28 SW18G26   29.60F
CHEYENNE WY    PTSUNNY   75  27  17 SW12      29.97F
SCOTTSBLUFF NE FAIR      82  38  20 E6        29.85F
OMAHA NE       CLOUDY    73  65  75 S9        29.89F
DES MOINES IA  CLOUDY    70  65  84 S7        29.92F
DAVENPORT IA   FAIR      79  62  56 S7        29.98F
CHICAGO IL     PTSUNNY   73  53  49 NE10      30.01F
EAU CLAIRE WI  RAIN      57  55  93 CALM      30.03S FOG
LA CROSSE WI   LGT RAIN  61  57  87 E3        30.02F
$$

  *****  SOME NATIONAL WEATHER *****

CITY           SKY/WX    TMP DP  RH WIND       PRES   REMARKS
LA GUARDIA NY  CLOUDY    74  67  78 NE9       30.08S
RALEIGH NC     FAIR      81  64  56 NE10      29.97F
ATLANTA GA     FAIR      84  57  39 NW10      30.01S
NEW ORLEANS LA FAIR      90  70  51 S6        29.95F HX  95
OKLAHOMA CITY  FAIR      85  65  51 S15       29.93F
ALBUQUERQUE NM FAIR      83  31  15 S14       30.07F
SALT LAKE CITY PTSUNNY   84  33  16 S24G33    29.78F
LOS ANGELES CA FAIR      72  62  71 W15       29.93F
BOISE ID       LGT RAIN  60  51  72 NE9       29.74F
SEATTLE WA     PTSUNNY   62  46  55 S14       29.76F
$$

*** WEATHER ACROSS MANITOBA...SASKATCHEWAN AND ONTARIO ***
                ***ONTARIO***

CITY           SKY/WX    TMP DP  RH WIND       PRES   REMARKS
GERALDTON      PTSUNNY   61  45  55 S13       30.03S
THUNDER BAY    PTSUNNY   59  48  67 S8        30.05F
SIOUX LOOKOUT  PTSUNNY   64  41  42 SW5       29.95F
TORONTO        PTSUNNY   77  64  65 SE8       30.02S
BIG TROUT LK   PTSUNNY   46  37  71 W15G22    29.90R
PICKLE LAKE    PTSUNNY   54  39  58 W12G20    29.97S
DRYDEN         SUNNY     63  43  48 S10       29.94F
KENORA         NOT AVBL
$$
                *** MANITOBA***

CITY           SKY/WX    TMP DP  RH WIND       PRES   REMARKS
BRANDON        MOSUNNY   68  45  42 SE12      29.80S
DAUPHIN        SUNNY     64  50  59 SE13      29.81F
ISLAND LAKE    NOT AVBL
PILOT MOUND      N/A     64  48  55 E13         N/A
THE PAS        MOSUNNY   57  36  44 SE13      29.85F
THOMPSON       PTSUNNY   57  30  35 W8        29.87S
WINNIPEG       PTSUNNY   66  46  48 SE8       29.84F
LYNN LAKE      CLOUDY    57  37  47 SE5       29.85S
CHURCHILL      PTSUNNY   45  36  70 NW6       29.90S
GILLAM         PTSUNNY   46  39  76 CALM      29.90S
$$
                ***SASKATCHEWAN***

CITY           SKY/WX    TMP DP  RH WIND       PRES   REMARKS
ESTEVAN        CLOUDY    73  41  31 S14       29.71F
KINDERSLEY     CLOUDY    66  36  32 SE12      29.55F
LLOYDMINSTER   CLOUDY    57  43  58 E16G24    29.57F
PRINCE ALBERT  PTSUNNY   63  37  39 E18G26    29.72S
REGINA         CLOUDY    72  39  30 SE16      29.63F
YORKTON        SUNNY     68  46  45 S15G25    29.73F
N. BATTLEFORD  CLOUDY    63  39  42 E18       29.61F



USA.gov is the U.S. government's official web portal to all federal, state and local government web resources and services.